Terug naar catalogus

STARLINK-34883

ActiefCommunicatieVLEO
NORAD 65426·PAYLOAD·🇺🇸 United States

Gelanceerd Aug 31, 2025 vanaf Cape Canaveral Space Force Station

Loading…

Volgende Passages (komende 24 uur)

TLE

VersSource: CelesTrak SupGP

Epoch: Sep 14, 2026, 23:10 UTC

1 65426C 25192Y   26257.96576389  .00044822  00000+0  14414-2 0  2579
2 65426  53.1573  71.9545 0001224  84.3171 162.8814 15.31677949    16

Volg STARLINK-34883 in realtime met AllMySat

Download on the App Store